Year,Month,Day,Hour,Minute,Value (Times are PST for temperature in C)
2015,09,30,00,00,9.90
2015,09,30,00,01,9.90
2015,09,30,00,02,10.00
2015,09,30,00,03,10.00
2015,09,30,00,04,10.10
2015,09,30,00,05,10.10
2015,09,30,00,06,10.10
2015,09,30,00,07,10.20
2015,09,30,00,08,10.30
2015,09,30,00,09,10.30
2015,09,30,00,10,10.30
2015,09,30,00,11,10.40
2015,09,30,00,12,10.40
2015,09,30,00,13,10.40
2015,09,30,00,14,10.40
2015,09,30,00,15,10.40
2015,09,30,00,16,10.40
2015,09,30,00,17,10.40
2015,09,30,00,18,10.30
2015,09,30,00,19,10.30
2015,09,30,00,20,10.30
2015,09,30,00,21,10.20
2015,09,30,00,22,10.20
2015,09,30,00,23,10.20
2015,09,30,00,24,10.20
2015,09,30,00,25,10.30
2015,09,30,00,26,10.30
2015,09,30,00,27,10.20
2015,09,30,00,28,10.20
2015,09,30,00,29,10.20
2015,09,30,00,30,10.20
2015,09,30,00,31,10.20
2015,09,30,00,32,10.20
2015,09,30,00,33,10.20
2015,09,30,00,34,10.20
2015,09,30,00,35,10.10
2015,09,30,00,36,10.10
2015,09,30,00,37,10.00
2015,09,30,00,38,10.00
2015,09,30,00,39,9.90
2015,09,30,00,40,9.90
2015,09,30,00,41,9.90
2015,09,30,00,42,9.80
2015,09,30,00,43,9.80
2015,09,30,00,44,9.80
2015,09,30,00,45,9.70
2015,09,30,00,46,9.70
2015,09,30,00,47,9.60
2015,09,30,00,48,9.60
2015,09,30,00,49,9.60
2015,09,30,00,50,9.60
2015,09,30,00,51,9.70
2015,09,30,00,52,9.70
2015,09,30,00,53,9.80
2015,09,30,00,54,9.80
2015,09,30,00,55,9.90
2015,09,30,00,56,9.90
2015,09,30,00,57,10.00
2015,09,30,00,58,10.00
2015,09,30,00,59,10.10
2015,09,30,01,00,10.10
2015,09,30,01,01,10.10
2015,09,30,01,02,10.10
2015,09,30,01,03,10.20
2015,09,30,01,04,10.20
2015,09,30,01,05,10.20
2015,09,30,01,06,10.30
2015,09,30,01,07,10.30
2015,09,30,01,08,10.20
2015,09,30,01,09,10.30
2015,09,30,01,10,10.30
2015,09,30,01,11,10.30
2015,09,30,01,12,10.30
2015,09,30,01,13,10.30
2015,09,30,01,14,10.30
2015,09,30,01,15,10.30
2015,09,30,01,16,10.30
2015,09,30,01,17,10.30
2015,09,30,01,18,10.30
2015,09,30,01,19,10.30
2015,09,30,01,20,10.30
2015,09,30,01,21,10.30
2015,09,30,01,22,10.20
2015,09,30,01,23,10.20
2015,09,30,01,24,10.20
2015,09,30,01,25,10.10
2015,09,30,01,26,10.10
2015,09,30,01,27,10.10
2015,09,30,01,28,10.10
2015,09,30,01,29,10.10
2015,09,30,01,30,10.10
2015,09,30,01,31,10.10
2015,09,30,01,32,10.10
2015,09,30,01,33,10.10
2015,09,30,01,34,10.10
2015,09,30,01,35,10.00
2015,09,30,01,36,10.00
2015,09,30,01,37,9.90
2015,09,30,01,38,9.90
2015,09,30,01,39,9.80
2015,09,30,01,40,9.80
2015,09,30,01,41,9.80
2015,09,30,01,42,9.80
2015,09,30,01,43,9.70
2015,09,30,01,44,9.70
2015,09,30,01,45,9.70
2015,09,30,01,46,9.80
2015,09,30,01,47,9.80
2015,09,30,01,48,9.80
2015,09,30,01,49,9.80
2015,09,30,01,50,9.70
2015,09,30,01,51,9.70
2015,09,30,01,52,9.70
2015,09,30,01,53,9.70
2015,09,30,01,54,9.80
2015,09,30,01,55,9.70
2015,09,30,01,56,9.80
2015,09,30,01,57,9.80
2015,09,30,01,58,9.80
2015,09,30,01,59,9.80
2015,09,30,02,00,9.80
2015,09,30,02,01,9.80
2015,09,30,02,02,9.90
2015,09,30,02,03,9.90
2015,09,30,02,04,9.90
2015,09,30,02,05,9.90
2015,09,30,02,06,9.90
2015,09,30,02,07,9.80
2015,09,30,02,08,9.80
2015,09,30,02,09,9.80
2015,09,30,02,10,9.80
2015,09,30,02,11,9.80
2015,09,30,02,12,9.80
2015,09,30,02,13,9.80
2015,09,30,02,14,9.80
2015,09,30,02,15,9.80
2015,09,30,02,16,9.80
2015,09,30,02,17,9.80
2015,09,30,02,18,9.70
2015,09,30,02,19,9.70
2015,09,30,02,20,9.70
2015,09,30,02,21,9.70
2015,09,30,02,22,9.60
2015,09,30,02,23,9.50
2015,09,30,02,24,9.40
2015,09,30,02,25,9.30
2015,09,30,02,26,9.30
2015,09,30,02,27,9.20
2015,09,30,02,28,9.20
2015,09,30,02,29,9.10
2015,09,30,02,30,9.10
2015,09,30,02,31,9.10
2015,09,30,02,32,9.10
2015,09,30,02,33,9.20
2015,09,30,02,34,9.30
2015,09,30,02,35,9.40
2015,09,30,02,36,9.50
2015,09,30,02,37,9.50
2015,09,30,02,38,9.60
2015,09,30,02,39,9.70
2015,09,30,02,40,9.70
2015,09,30,02,41,9.70
2015,09,30,02,42,9.70
2015,09,30,02,43,9.70
2015,09,30,02,44,9.60
2015,09,30,02,45,9.50
2015,09,30,02,46,9.40
2015,09,30,02,47,9.30
2015,09,30,02,48,9.20
2015,09,30,02,49,9.10
2015,09,30,02,50,9.10
2015,09,30,02,51,9.00
2015,09,30,02,52,8.90
2015,09,30,02,53,8.80
2015,09,30,02,54,8.80
2015,09,30,02,55,8.80
2015,09,30,02,56,8.80
2015,09,30,02,57,8.80
2015,09,30,02,58,8.80
2015,09,30,02,59,8.90
2015,09,30,03,00,8.90
2015,09,30,03,01,8.90
2015,09,30,03,02,8.90
2015,09,30,03,03,8.90
2015,09,30,03,04,9.00
2015,09,30,03,05,9.00
2015,09,30,03,06,9.00
2015,09,30,03,07,9.10
2015,09,30,03,08,9.00
2015,09,30,03,09,9.00
2015,09,30,03,10,9.00
2015,09,30,03,11,9.00
2015,09,30,03,12,9.00
2015,09,30,03,13,9.00
2015,09,30,03,14,9.10
2015,09,30,03,15,9.00
2015,09,30,03,16,9.00
2015,09,30,03,17,9.10
2015,09,30,03,18,9.10
2015,09,30,03,19,9.10
2015,09,30,03,20,9.10
2015,09,30,03,21,9.20
2015,09,30,03,22,9.20
2015,09,30,03,23,9.20
2015,09,30,03,24,9.20
2015,09,30,03,25,9.20
2015,09,30,03,26,9.20
2015,09,30,03,27,9.20
2015,09,30,03,28,9.10
2015,09,30,03,29,9.10
2015,09,30,03,30,9.10
2015,09,30,03,31,9.00
2015,09,30,03,32,9.00
2015,09,30,03,33,8.90
2015,09,30,03,34,8.90
2015,09,30,03,35,8.90
2015,09,30,03,36,8.90
2015,09,30,03,37,8.90
2015,09,30,03,38,9.00
2015,09,30,03,39,9.10
2015,09,30,03,40,9.10
2015,09,30,03,41,9.10
2015,09,30,03,42,9.10
2015,09,30,03,43,9.10
2015,09,30,03,44,9.10
2015,09,30,03,45,9.20
2015,09,30,03,46,9.20
2015,09,30,03,47,9.20
2015,09,30,03,48,9.30
2015,09,30,03,49,9.30
2015,09,30,03,50,9.30
2015,09,30,03,51,9.30
2015,09,30,03,52,9.40
2015,09,30,03,53,9.40
2015,09,30,03,54,9.40
2015,09,30,03,55,9.40
2015,09,30,03,56,9.40
2015,09,30,03,57,9.40
2015,09,30,03,58,9.40
2015,09,30,03,59,9.40
2015,09,30,04,00,9.30
2015,09,30,04,01,9.30
2015,09,30,04,02,9.30
2015,09,30,04,03,9.30
2015,09,30,04,04,9.30
2015,09,30,04,05,9.20
2015,09,30,04,06,9.20
2015,09,30,04,07,9.20
2015,09,30,04,08,9.20
2015,09,30,04,09,9.10
2015,09,30,04,10,9.10
2015,09,30,04,11,9.10
2015,09,30,04,12,9.10
2015,09,30,04,13,9.10
2015,09,30,04,14,9.10
2015,09,30,04,15,9.10
2015,09,30,04,16,9.10
2015,09,30,04,17,9.10
2015,09,30,04,18,9.20
2015,09,30,04,19,9.20
2015,09,30,04,20,9.20
2015,09,30,04,21,9.20
2015,09,30,04,22,9.20
2015,09,30,04,23,9.20
2015,09,30,04,24,9.30
2015,09,30,04,25,9.30
2015,09,30,04,26,9.30
2015,09,30,04,27,9.30
2015,09,30,04,28,9.20
2015,09,30,04,29,9.20
2015,09,30,04,30,9.20
2015,09,30,04,31,9.20
2015,09,30,04,32,9.20
2015,09,30,04,33,9.10
2015,09,30,04,34,9.10
2015,09,30,04,35,9.10
2015,09,30,04,36,9.10
2015,09,30,04,37,9.10
2015,09,30,04,38,9.10
2015,09,30,04,39,9.10
2015,09,30,04,40,9.10
2015,09,30,04,41,9.10
2015,09,30,04,42,9.10
2015,09,30,04,43,9.10
2015,09,30,04,44,9.10
2015,09,30,04,45,9.20
2015,09,30,04,46,9.20
2015,09,30,04,47,9.30
2015,09,30,04,48,9.30
2015,09,30,04,49,9.30
2015,09,30,04,50,9.30
2015,09,30,04,51,9.30
2015,09,30,04,52,9.30
2015,09,30,04,53,9.30
2015,09,30,04,54,9.30
2015,09,30,04,55,9.30
2015,09,30,04,56,9.30
2015,09,30,04,57,9.30
2015,09,30,04,58,9.20
2015,09,30,04,59,9.20
2015,09,30,05,00,9.20
2015,09,30,05,01,9.20
2015,09,30,05,02,9.30
2015,09,30,05,03,9.30
2015,09,30,05,04,9.30
2015,09,30,05,05,9.30
2015,09,30,05,06,9.30
2015,09,30,05,07,9.30
2015,09,30,05,08,9.30
2015,09,30,05,09,9.30
2015,09,30,05,10,9.30
2015,09,30,05,11,9.30
2015,09,30,05,12,9.30
2015,09,30,05,13,9.30
2015,09,30,05,14,9.20
2015,09,30,05,15,9.20
2015,09,30,05,16,9.10
2015,09,30,05,17,9.10
2015,09,30,05,18,9.00
2015,09,30,05,19,9.00
2015,09,30,05,20,9.00
2015,09,30,05,21,8.90
2015,09,30,05,22,8.90
2015,09,30,05,23,8.90
2015,09,30,05,24,9.00
2015,09,30,05,25,9.00
2015,09,30,05,26,9.00
2015,09,30,05,27,9.10
2015,09,30,05,28,9.10
2015,09,30,05,29,9.20
2015,09,30,05,30,9.20
2015,09,30,05,31,9.20
2015,09,30,05,32,9.20
2015,09,30,05,33,9.10
2015,09,30,05,34,9.10
2015,09,30,05,35,9.10
2015,09,30,05,36,9.10
2015,09,30,05,37,9.00
2015,09,30,05,38,9.00
2015,09,30,05,39,9.00
2015,09,30,05,40,9.00
2015,09,30,05,41,9.00
2015,09,30,05,42,9.00
2015,09,30,05,43,9.10
2015,09,30,05,44,9.10
2015,09,30,05,45,9.20
2015,09,30,05,46,9.20
2015,09,30,05,47,9.30
2015,09,30,05,48,9.30
2015,09,30,05,49,9.40
2015,09,30,05,50,9.40
2015,09,30,05,51,9.40
2015,09,30,05,52,9.50
2015,09,30,05,53,9.50
2015,09,30,05,54,9.50
2015,09,30,05,55,9.60
2015,09,30,05,56,9.60
2015,09,30,05,57,9.60
2015,09,30,05,58,9.70
2015,09,30,05,59,9.70
2015,09,30,06,00,9.70
2015,09,30,06,01,9.70
2015,09,30,06,02,9.70
2015,09,30,06,03,9.70
2015,09,30,06,04,9.70
2015,09,30,06,05,9.70
2015,09,30,06,06,9.70
2015,09,30,06,07,9.70
2015,09,30,06,08,9.60
2015,09,30,06,09,9.60
2015,09,30,06,10,9.60
2015,09,30,06,11,9.60
2015,09,30,06,12,9.60
2015,09,30,06,13,9.60
2015,09,30,06,14,9.60
2015,09,30,06,15,9.50
2015,09,30,06,16,9.50
2015,09,30,06,17,9.50
2015,09,30,06,18,9.50
2015,09,30,06,19,9.50
2015,09,30,06,20,9.40
2015,09,30,06,21,9.40
2015,09,30,06,22,9.40
2015,09,30,06,23,9.40
2015,09,30,06,24,9.40
2015,09,30,06,25,9.40
2015,09,30,06,26,9.30
2015,09,30,06,27,9.30
2015,09,30,06,28,9.30
2015,09,30,06,29,9.30
2015,09,30,06,30,9.30
2015,09,30,06,31,9.30
2015,09,30,06,32,9.30
2015,09,30,06,33,9.30
2015,09,30,06,34,9.30
2015,09,30,06,35,9.30
2015,09,30,06,36,9.30
2015,09,30,06,37,9.30
2015,09,30,06,38,9.30
2015,09,30,06,39,9.30
2015,09,30,06,40,9.30
2015,09,30,06,41,9.30
2015,09,30,06,42,9.30
2015,09,30,06,43,9.30
2015,09,30,06,44,9.30
2015,09,30,06,45,9.40
2015,09,30,06,46,9.40
2015,09,30,06,47,9.40
2015,09,30,06,48,9.40
2015,09,30,06,49,9.40
2015,09,30,06,50,9.30
2015,09,30,06,51,9.30
2015,09,30,06,52,9.30
2015,09,30,06,53,9.30
2015,09,30,06,54,9.30
2015,09,30,06,55,9.30
2015,09,30,06,56,9.30
2015,09,30,06,57,9.30
2015,09,30,06,58,9.30
2015,09,30,06,59,9.30
2015,09,30,07,00,9.30
2015,09,30,07,01,9.30
2015,09,30,07,02,9.20
2015,09,30,07,03,9.20
2015,09,30,07,04,9.20
2015,09,30,07,05,9.20
2015,09,30,07,06,9.20
2015,09,30,07,07,9.20
2015,09,30,07,08,9.20
2015,09,30,07,09,9.10
2015,09,30,07,10,9.10
2015,09,30,07,11,9.10
2015,09,30,07,12,9.10
2015,09,30,07,13,9.00
2015,09,30,07,14,8.90
2015,09,30,07,15,8.90
2015,09,30,07,16,8.90
2015,09,30,07,17,8.80
2015,09,30,07,18,8.80
2015,09,30,07,19,8.80
2015,09,30,07,20,8.70
2015,09,30,07,21,8.70
2015,09,30,07,22,8.70
2015,09,30,07,23,8.70
2015,09,30,07,24,8.70
2015,09,30,07,25,8.70
2015,09,30,07,26,8.70
2015,09,30,07,27,8.70
2015,09,30,07,28,8.70
2015,09,30,07,29,8.70
2015,09,30,07,30,8.70
2015,09,30,07,31,8.70
2015,09,30,07,32,8.70
2015,09,30,07,33,8.60
2015,09,30,07,34,8.60
2015,09,30,07,35,8.70
2015,09,30,07,36,8.70
2015,09,30,07,37,8.70
2015,09,30,07,38,8.80
2015,09,30,07,39,8.80
2015,09,30,07,40,8.90
2015,09,30,07,41,8.90
2015,09,30,07,42,9.00
2015,09,30,07,43,9.00
2015,09,30,07,44,9.10
2015,09,30,07,45,9.10
2015,09,30,07,46,9.10
2015,09,30,07,47,9.20
2015,09,30,07,48,9.20
2015,09,30,07,49,9.20
2015,09,30,07,50,9.20
2015,09,30,07,51,9.30
2015,09,30,07,52,9.30
2015,09,30,07,53,9.30
2015,09,30,07,54,9.30
2015,09,30,07,55,9.30
2015,09,30,07,56,9.30
2015,09,30,07,57,9.30
2015,09,30,07,58,9.30
2015,09,30,07,59,9.30
2015,09,30,08,00,9.30
2015,09,30,08,01,9.30
2015,09,30,08,02,9.30
2015,09,30,08,03,9.30
2015,09,30,08,04,9.30
2015,09,30,08,05,9.40
2015,09,30,08,06,9.40
2015,09,30,08,07,9.40
2015,09,30,08,08,9.40
2015,09,30,08,09,9.40
2015,09,30,08,10,9.40
2015,09,30,08,11,9.40
2015,09,30,08,12,9.50
2015,09,30,08,13,9.60
2015,09,30,08,14,9.60
2015,09,30,08,15,9.60
2015,09,30,08,16,9.70
2015,09,30,08,17,9.70
2015,09,30,08,18,9.70
2015,09,30,08,19,9.80
2015,09,30,08,20,9.80
2015,09,30,08,21,9.80
2015,09,30,08,22,9.90
2015,09,30,08,23,9.90
2015,09,30,08,24,9.90
2015,09,30,08,25,10.00
2015,09,30,08,26,10.00
2015,09,30,08,27,10.00
2015,09,30,08,28,10.10
2015,09,30,08,29,10.10
2015,09,30,08,30,10.10
2015,09,30,08,31,10.20
2015,09,30,08,32,10.20
2015,09,30,08,33,10.20
2015,09,30,08,34,10.30
2015,09,30,08,35,10.30
2015,09,30,08,36,10.30
2015,09,30,08,37,10.30
2015,09,30,08,38,10.40
2015,09,30,08,39,10.40
2015,09,30,08,40,10.40
2015,09,30,08,41,10.40
2015,09,30,08,42,10.50
2015,09,30,08,43,10.50
2015,09,30,08,44,10.50
2015,09,30,08,45,10.60
2015,09,30,08,46,10.60
2015,09,30,08,47,10.60
2015,09,30,08,48,10.70
2015,09,30,08,49,10.70
2015,09,30,08,50,10.70
2015,09,30,08,51,10.80
2015,09,30,08,52,10.80
2015,09,30,08,53,10.90
2015,09,30,08,54,10.90
2015,09,30,08,55,10.90
2015,09,30,08,56,11.00
2015,09,30,08,57,11.00
2015,09,30,08,58,11.10
2015,09,30,08,59,11.10
2015,09,30,09,00,11.20
2015,09,30,09,01,11.20
2015,09,30,09,02,11.20
2015,09,30,09,03,11.30
2015,09,30,09,04,11.30
2015,09,30,09,05,11.30
2015,09,30,09,06,11.40
2015,09,30,09,07,11.40
2015,09,30,09,08,11.50
2015,09,30,09,09,11.50
2015,09,30,09,10,11.60
2015,09,30,09,11,11.60
2015,09,30,09,12,11.70
2015,09,30,09,13,11.70
2015,09,30,09,14,11.80
2015,09,30,09,15,11.80
2015,09,30,09,16,11.80
2015,09,30,09,17,11.90
2015,09,30,09,18,11.90
2015,09,30,09,19,12.00
2015,09,30,09,20,12.00
2015,09,30,09,21,12.10
2015,09,30,09,22,12.10
2015,09,30,09,23,12.20
2015,09,30,09,24,12.20
2015,09,30,09,25,12.20
2015,09,30,09,26,12.20
2015,09,30,09,27,12.30
2015,09,30,09,28,12.30
2015,09,30,09,29,12.40
2015,09,30,09,30,12.40
2015,09,30,09,31,12.40
2015,09,30,09,32,12.50
2015,09,30,09,33,12.60
2015,09,30,09,34,12.60
2015,09,30,09,35,12.70
2015,09,30,09,36,12.70
2015,09,30,09,37,12.80
2015,09,30,09,38,12.80
2015,09,30,09,39,12.90
2015,09,30,09,40,13.00
2015,09,30,09,41,13.10
2015,09,30,09,42,13.10
2015,09,30,09,43,13.20
2015,09,30,09,44,13.30
2015,09,30,09,45,13.40
2015,09,30,09,46,13.50
2015,09,30,09,47,13.60
2015,09,30,09,48,13.70
2015,09,30,09,49,13.80
2015,09,30,09,50,13.80
2015,09,30,09,51,13.90
2015,09,30,09,52,13.90
2015,09,30,09,53,13.90
2015,09,30,09,54,13.90
2015,09,30,09,55,14.00
2015,09,30,09,56,14.00
2015,09,30,09,57,14.00
2015,09,30,09,58,14.00
2015,09,30,09,59,14.00
2015,09,30,10,00,14.00
2015,09,30,10,01,14.10
2015,09,30,10,02,14.10
2015,09,30,10,03,14.10
2015,09,30,10,04,14.10
2015,09,30,10,05,14.20
2015,09,30,10,06,14.20
2015,09,30,10,07,14.30
2015,09,30,10,08,14.30
2015,09,30,10,09,14.40
2015,09,30,10,10,14.40
2015,09,30,10,11,14.40
2015,09,30,10,12,14.50
2015,09,30,10,13,14.60
2015,09,30,10,14,14.60
2015,09,30,10,15,14.60
2015,09,30,10,16,14.60
2015,09,30,10,17,14.70
2015,09,30,10,18,14.70
2015,09,30,10,19,14.80
2015,09,30,10,20,14.80
2015,09,30,10,21,14.90
2015,09,30,10,22,14.90
2015,09,30,10,23,15.00
2015,09,30,10,24,15.10
2015,09,30,10,25,15.20
2015,09,30,10,26,15.20
2015,09,30,10,27,15.20
2015,09,30,10,28,15.20
2015,09,30,10,29,15.20
2015,09,30,10,30,15.20
2015,09,30,10,31,15.20
2015,09,30,10,32,15.20
2015,09,30,10,33,15.30
2015,09,30,10,34,15.30
2015,09,30,10,35,15.30
2015,09,30,10,36,15.30
2015,09,30,10,37,15.40
2015,09,30,10,38,15.50
2015,09,30,10,39,15.60
2015,09,30,10,40,15.60
2015,09,30,10,41,15.60
2015,09,30,10,42,15.70
2015,09,30,10,43,15.60
2015,09,30,10,44,15.60
2015,09,30,10,45,15.60
2015,09,30,10,46,15.50
2015,09,30,10,47,15.50
2015,09,30,10,48,15.50
2015,09,30,10,49,15.50
2015,09,30,10,50,15.50
2015,09,30,10,51,15.40
2015,09,30,10,52,15.40
2015,09,30,10,53,15.40
2015,09,30,10,54,15.40
2015,09,30,10,55,15.40
2015,09,30,10,56,15.40
2015,09,30,10,57,15.30
2015,09,30,10,58,15.30
2015,09,30,10,59,15.20
2015,09,30,11,00,15.20
2015,09,30,11,01,15.10
2015,09,30,11,02,15.10
2015,09,30,11,03,15.00
2015,09,30,11,04,15.00
2015,09,30,11,05,15.00
2015,09,30,11,06,14.90
2015,09,30,11,07,14.90
2015,09,30,11,08,14.90
2015,09,30,11,09,14.90
2015,09,30,11,10,15.00
2015,09,30,11,11,15.00
2015,09,30,11,12,15.00
2015,09,30,11,13,15.10
2015,09,30,11,14,15.10
2015,09,30,11,15,15.10
2015,09,30,11,16,15.10
2015,09,30,11,17,15.20
2015,09,30,11,18,15.20
2015,09,30,11,19,15.30
2015,09,30,11,20,15.30
2015,09,30,11,21,15.40
2015,09,30,11,22,15.40
2015,09,30,11,23,15.40
2015,09,30,11,24,15.40
2015,09,30,11,25,15.40
2015,09,30,11,26,15.50
2015,09,30,11,27,15.60
2015,09,30,11,28,15.60
2015,09,30,11,29,15.60
2015,09,30,11,30,15.50
2015,09,30,11,31,15.50
2015,09,30,11,32,15.50
2015,09,30,11,33,15.50
2015,09,30,11,34,15.60
2015,09,30,11,35,15.60
2015,09,30,11,36,15.60
2015,09,30,11,37,15.60
2015,09,30,11,38,15.60
2015,09,30,11,39,15.60
2015,09,30,11,40,15.60
2015,09,30,11,41,15.70
2015,09,30,11,42,15.70
2015,09,30,11,43,15.80
2015,09,30,11,44,15.80
2015,09,30,11,45,15.80
2015,09,30,11,46,15.80
2015,09,30,11,47,15.90
2015,09,30,11,48,16.00
2015,09,30,11,49,16.00
2015,09,30,11,50,16.10
2015,09,30,11,51,16.00
2015,09,30,11,52,16.00
2015,09,30,11,53,15.90
2015,09,30,11,54,15.90
2015,09,30,11,55,15.90
2015,09,30,11,56,15.90
2015,09,30,11,57,15.90
2015,09,30,11,58,15.90
2015,09,30,11,59,15.90
2015,09,30,12,00,16.00
2015,09,30,12,01,16.10
2015,09,30,12,02,16.10
2015,09,30,12,03,16.10
2015,09,30,12,04,16.10
2015,09,30,12,05,16.20
2015,09,30,12,06,16.20
2015,09,30,12,07,16.30
2015,09,30,12,08,16.30
2015,09,30,12,09,16.30
2015,09,30,12,10,16.40
2015,09,30,12,11,16.40
2015,09,30,12,12,16.50
2015,09,30,12,13,16.60
2015,09,30,12,14,16.60
2015,09,30,12,15,16.60
2015,09,30,12,16,16.50
2015,09,30,12,17,16.40
2015,09,30,12,18,16.30
2015,09,30,12,19,16.30
2015,09,30,12,20,16.30
2015,09,30,12,21,16.30
2015,09,30,12,22,16.30
2015,09,30,12,23,16.40
2015,09,30,12,24,16.40
2015,09,30,12,25,16.40
2015,09,30,12,26,16.40
2015,09,30,12,27,16.40
2015,09,30,12,28,16.40
2015,09,30,12,29,16.40
2015,09,30,12,30,16.40
2015,09,30,12,31,16.40
2015,09,30,12,32,16.40
2015,09,30,12,33,16.40
2015,09,30,12,34,16.40
2015,09,30,12,35,16.40
2015,09,30,12,36,16.40
2015,09,30,12,37,16.40
2015,09,30,12,38,16.30
2015,09,30,12,39,16.30
2015,09,30,12,40,16.30
2015,09,30,12,41,16.40
2015,09,30,12,42,16.40
2015,09,30,12,43,16.60
2015,09,30,12,44,16.70
2015,09,30,12,45,16.90
2015,09,30,12,46,17.00
2015,09,30,12,47,17.10
2015,09,30,12,48,17.20
2015,09,30,12,49,17.30
2015,09,30,12,50,17.40
2015,09,30,12,51,17.50
2015,09,30,12,52,17.60
2015,09,30,12,53,17.50
2015,09,30,12,54,17.50
2015,09,30,12,55,17.40
2015,09,30,12,56,17.40
2015,09,30,12,57,17.50
2015,09,30,12,58,17.50
2015,09,30,12,59,17.60
2015,09,30,13,00,17.60
2015,09,30,13,01,17.60
2015,09,30,13,02,17.60
2015,09,30,13,03,17.60
2015,09,30,13,04,17.60
2015,09,30,13,05,17.60
2015,09,30,13,06,17.60
2015,09,30,13,07,17.70
2015,09,30,13,08,17.70
2015,09,30,13,09,17.70
2015,09,30,13,10,17.70
2015,09,30,13,11,17.70
2015,09,30,13,12,17.70
2015,09,30,13,13,17.60
2015,09,30,13,14,17.60
2015,09,30,13,15,17.60
2015,09,30,13,16,17.60
2015,09,30,13,17,17.60
2015,09,30,13,18,17.60
2015,09,30,13,19,17.50
2015,09,30,13,20,17.40
2015,09,30,13,21,17.40
2015,09,30,13,22,17.30
2015,09,30,13,23,17.30
2015,09,30,13,24,17.20
2015,09,30,13,25,17.20
2015,09,30,13,26,17.10
2015,09,30,13,27,17.10
2015,09,30,13,28,17.10
2015,09,30,13,29,17.20
2015,09,30,13,30,17.30
2015,09,30,13,31,17.30
2015,09,30,13,32,17.40
2015,09,30,13,33,17.50
2015,09,30,13,34,17.50
2015,09,30,13,35,17.60
2015,09,30,13,36,17.70
2015,09,30,13,37,17.70
2015,09,30,13,38,17.80
2015,09,30,13,39,17.80
2015,09,30,13,40,17.80
2015,09,30,13,41,17.80
2015,09,30,13,42,17.80
2015,09,30,13,43,17.80
2015,09,30,13,44,17.80
2015,09,30,13,45,17.80
2015,09,30,13,46,17.80
2015,09,30,13,47,17.80
2015,09,30,13,48,17.80
2015,09,30,13,49,17.80
2015,09,30,13,50,17.80
2015,09,30,13,51,17.80
2015,09,30,13,52,17.80
2015,09,30,13,53,17.70
2015,09,30,13,54,17.70
2015,09,30,13,55,17.60
2015,09,30,13,56,17.60
2015,09,30,13,57,17.60
2015,09,30,13,58,17.70
2015,09,30,13,59,17.70
2015,09,30,14,00,17.70
2015,09,30,14,01,17.70
2015,09,30,14,02,17.70
2015,09,30,14,03,17.70
2015,09,30,14,04,17.70
2015,09,30,14,05,17.70
2015,09,30,14,06,17.60
2015,09,30,14,07,17.60
2015,09,30,14,08,17.60
2015,09,30,14,09,17.60
2015,09,30,14,10,17.60
2015,09,30,14,11,17.60
2015,09,30,14,12,17.60
2015,09,30,14,13,17.60
2015,09,30,14,14,17.60
2015,09,30,14,15,17.70
2015,09,30,14,16,17.70
2015,09,30,14,17,17.70
2015,09,30,14,18,17.60
2015,09,30,14,19,17.70
2015,09,30,14,20,17.70
2015,09,30,14,21,17.70
2015,09,30,14,22,17.70
2015,09,30,14,23,17.70
2015,09,30,14,24,17.70
2015,09,30,14,25,17.70
2015,09,30,14,26,17.70
2015,09,30,14,27,17.70
2015,09,30,14,28,17.70
2015,09,30,14,29,17.70
2015,09,30,14,30,17.70
2015,09,30,14,31,17.70
2015,09,30,14,32,17.70
2015,09,30,14,33,17.80
2015,09,30,14,34,17.90
2015,09,30,14,35,17.90
2015,09,30,14,36,17.90
2015,09,30,14,37,18.00
2015,09,30,14,38,18.10
2015,09,30,14,39,18.10
2015,09,30,14,40,18.10
2015,09,30,14,41,18.20
2015,09,30,14,42,18.10
2015,09,30,14,43,18.00
2015,09,30,14,44,18.00
2015,09,30,14,45,18.00
2015,09,30,14,46,17.90
2015,09,30,14,47,17.90
2015,09,30,14,48,17.90
2015,09,30,14,49,17.90
2015,09,30,14,50,18.00
2015,09,30,14,51,18.00
2015,09,30,14,52,18.10
2015,09,30,14,53,18.20
2015,09,30,14,54,18.20
2015,09,30,14,55,18.20
2015,09,30,14,56,18.20
2015,09,30,14,57,18.20
2015,09,30,14,58,18.10
2015,09,30,14,59,18.10
2015,09,30,15,00,18.10
2015,09,30,15,01,18.10
2015,09,30,15,02,18.10
2015,09,30,15,03,18.10
2015,09,30,15,04,18.10
2015,09,30,15,05,18.10
2015,09,30,15,06,18.10
2015,09,30,15,07,18.00
2015,09,30,15,08,18.00
2015,09,30,15,09,18.00
2015,09,30,15,10,18.00
2015,09,30,15,11,18.00
2015,09,30,15,12,18.10
2015,09,30,15,13,18.10
2015,09,30,15,14,18.10
2015,09,30,15,15,18.20
2015,09,30,15,16,18.20
2015,09,30,15,17,18.20
2015,09,30,15,18,18.20
2015,09,30,15,19,18.10
2015,09,30,15,20,18.10
2015,09,30,15,21,18.10
2015,09,30,15,22,18.10
2015,09,30,15,23,18.10
2015,09,30,15,24,18.10
2015,09,30,15,25,18.00
2015,09,30,15,26,18.00
2015,09,30,15,27,17.90
2015,09,30,15,28,17.90
2015,09,30,15,29,17.80
2015,09,30,15,30,17.70
2015,09,30,15,31,17.60
2015,09,30,15,32,17.60
2015,09,30,15,33,17.50
2015,09,30,15,34,17.50
2015,09,30,15,35,17.40
2015,09,30,15,36,17.30
2015,09,30,15,37,17.30
2015,09,30,15,38,17.40
2015,09,30,15,39,17.40
2015,09,30,15,40,17.40
2015,09,30,15,41,17.50
2015,09,30,15,42,17.50
2015,09,30,15,43,17.40
2015,09,30,15,44,17.40
2015,09,30,15,45,17.40
2015,09,30,15,46,17.40
2015,09,30,15,47,17.40
2015,09,30,15,48,17.40
2015,09,30,15,49,17.40
2015,09,30,15,50,17.40
2015,09,30,15,51,17.40
2015,09,30,15,52,17.40
2015,09,30,15,53,17.40
2015,09,30,15,54,17.40
2015,09,30,15,55,17.40
2015,09,30,15,56,17.30
2015,09,30,15,57,17.30
2015,09,30,15,58,17.30
2015,09,30,15,59,17.30
2015,09,30,16,00,17.30
2015,09,30,16,01,17.30
2015,09,30,16,02,17.30
2015,09,30,16,03,17.30
2015,09,30,16,04,17.30
2015,09,30,16,05,17.40
2015,09,30,16,06,17.30
2015,09,30,16,07,17.30
2015,09,30,16,08,17.30
2015,09,30,16,09,17.20
2015,09,30,16,10,17.10
2015,09,30,16,11,17.10
2015,09,30,16,12,17.10
2015,09,30,16,13,17.00
2015,09,30,16,14,17.00
2015,09,30,16,15,16.90
2015,09,30,16,16,16.80
2015,09,30,16,17,16.70
2015,09,30,16,18,16.70
2015,09,30,16,19,16.60
2015,09,30,16,20,16.60
2015,09,30,16,21,16.70
2015,09,30,16,22,16.70
2015,09,30,16,23,16.70
2015,09,30,16,24,16.70
2015,09,30,16,25,16.70
2015,09,30,16,26,16.70
2015,09,30,16,27,16.80
2015,09,30,16,28,16.80
2015,09,30,16,29,16.80
2015,09,30,16,30,16.80
2015,09,30,16,31,16.90
2015,09,30,16,32,16.90
2015,09,30,16,33,17.00
2015,09,30,16,34,17.00
2015,09,30,16,35,17.00
2015,09,30,16,36,17.00
2015,09,30,16,37,17.00
2015,09,30,16,38,16.90
2015,09,30,16,39,16.90
2015,09,30,16,40,16.90
2015,09,30,16,41,16.90
2015,09,30,16,42,16.90
2015,09,30,16,43,16.90
2015,09,30,16,44,16.90
2015,09,30,16,45,16.80
2015,09,30,16,46,16.80
2015,09,30,16,47,16.80
2015,09,30,16,48,16.70
2015,09,30,16,49,16.70
2015,09,30,16,50,16.70
2015,09,30,16,51,16.70
2015,09,30,16,52,16.70
2015,09,30,16,53,16.70
2015,09,30,16,54,16.70
2015,09,30,16,55,16.70
2015,09,30,16,56,16.70
2015,09,30,16,57,16.70
2015,09,30,16,58,16.70
2015,09,30,16,59,16.70
2015,09,30,17,00,16.70
2015,09,30,17,01,16.70
2015,09,30,17,02,16.70
2015,09,30,17,03,16.70
2015,09,30,17,04,16.70
2015,09,30,17,05,16.70
2015,09,30,17,06,16.70
2015,09,30,17,07,16.70
2015,09,30,17,08,16.70
2015,09,30,17,09,16.70
2015,09,30,17,10,16.70
2015,09,30,17,11,16.80
2015,09,30,17,12,16.80
2015,09,30,17,13,16.80
2015,09,30,17,14,16.80
2015,09,30,17,15,16.70
2015,09,30,17,16,16.70
2015,09,30,17,17,16.70
2015,09,30,17,18,16.70
2015,09,30,17,19,16.70
2015,09,30,17,20,16.70
2015,09,30,17,21,16.70
2015,09,30,17,22,16.70
2015,09,30,17,23,16.70
2015,09,30,17,24,16.70
2015,09,30,17,25,16.70
2015,09,30,17,26,16.60
2015,09,30,17,27,16.60
2015,09,30,17,28,16.60
2015,09,30,17,29,16.50
2015,09,30,17,30,16.50
2015,09,30,17,31,16.40
2015,09,30,17,32,16.40
2015,09,30,17,33,16.40
2015,09,30,17,34,16.40
2015,09,30,17,35,16.40
2015,09,30,17,36,16.40
2015,09,30,17,37,16.30
2015,09,30,17,38,16.30